Pagrindinis puslapis
METAR-TAF:

METAR-TAF

Oro uostai :

Midland, Teksasas, Jungtinės Amerikos Valstijos

platuma: 32-02-11N, ilguma: 102-06-03W, Aukštis: 854 m

Dabartinis oras

Ataskaita buvo paskelbta 25 minutes, ne 12:15 UTC
Vėjas 7 kt iš Pietų/Pietryčių
Temperatūra 14°C
Drėgmė 36%
Slėgis 1022 hPa
Matomumas: 16.1 km
Giedras dangus

METAR: KMDD 231215Z AUTO 15007KT 10SM CLR 14/M01 A3017 RMK AO2 T01371007

Laikas: 07:40 (12:40 UTC)


TAF: trūkstamas

Orai ataskaitas ir orų prognozės (METAR, TAF).

turimą stotys yra geltonos ir raudonos taškus žemėlapyje.

Perkelti pele per norėdami pamatyti stoties vardą.

Tada spustelėkite, norėdami matyti oro stebėjimo ir prognozės.

Norėdami pakeisti žemėlapį: spustelėkite ant žalios mygtukų su juodo kryžiaus žemyn,; žalią mygtuką su brūkšneliu, jei norite nutolinti; arba žalių rodyklių gretimoms žemėlapius.


METAR-TAF: